Weather History for Saint Louis, Senegal

Change the Weather History Date:

Friday, January 18, 2013

  Actual Average Record
Temperature  
Mean Temperature 73 °F -  
Max Temperature 89 °F 89 °F - ()
Min Temperature 57 °F 61 °F - ()
Cooling Degree Days 8    
Growing Degree Days 23 (Base 50)    
Moisture  
Dew Point 43 °F    
Average Humidity 41    
Maximum Humidity 82    
Minimum Humidity 15    
Precipitation  
Precipitation 0.00 in 0.00 in - ()
Sea Level Pressure  
Sea Level Pressure 29.97 in    
Wind  
Wind Speed 5 mph ()    
Max Wind Speed 9 mph    
Max Gust Speed -    
Visibility 6.0 miles    
Events      
T = Trace of Precipitation, MM = Missing Value Source: Averaged Metar Reports

Daily Weather History Graph

Daily Weather History Graph

Search for Another Location

Airport:

Trip Planner

Search our weather history database for the weather conditions in past years. The results will help you decide how hot, cold, wet, or windy it might be!

Date:

Astronomy

Jan. 18, 2013 Rise Set
Actual Time 7:37 AM GMT 6:55 PM GMT
Civil Twilight 7:14 AM GMT 7:18 PM GMT
Nautical Twilight 6:47 AM GMT 7:44 PM GMT
Astronomical Twilight 6:21 AM GMT 8:11 PM GMT
Moon 12:22 PM GMT (1/18) 12:24 AM GMT (1/18)
Length of Visible Light 12h 04m
Length of Day
11h 18m
Waxing Crescent, 45% of the Moon is Illuminated
Jan 18
Waxing Crescent
Jan 18
First Quarter
Jan 27
Full
Feb 3
Last Quarter
Feb 10
New

Hourly Weather History & Observations

Time (GMT) Temp. Dew Point Humidity Pressure Visibility Wind Dir Wind Speed Gust Speed Precip Events Conditions
12:00 AM 62 °F 51 °F 59% 30.02 in 6 mi North 2.3 mph - -  
12:00 AM 62.6 °F 51.8 °F 68% 30.01 in - Variable 2.3 mph - N/A   Clear
1:00 AM 60.8 °F 51.8 °F 72% 30.01 in - North 4.6 mph - N/A   Clear
3:00 AM 64.4 °F 37.4 °F 37% 29.98 in - NE 6.9 mph - N/A   Clear
4:00 AM 62.6 °F 35.6 °F 37% 29.95 in - ENE 6.9 mph - N/A   Clear
5:00 AM 62.6 °F 35.6 °F 37% 29.95 in - ENE 6.9 mph - N/A   Clear
6:00 AM 62 °F 33 °F 21% 29.97 in 6 mi ENE 6.9 mph - -  
6:00 AM 62.6 °F 32.0 °F 32% 29.95 in - ENE 6.9 mph - N/A   Clear
7:00 AM 59.0 °F 32.0 °F 36% 29.98 in - ENE 4.6 mph - N/A   Unknown
8:00 AM 57.2 °F 33.8 °F 41% 30.01 in - ENE 4.6 mph - N/A   Clear
9:00 AM 60.8 °F 32.0 °F 34% 30.01 in - ENE 6.9 mph - N/A   Clear
10:00 AM - 32.0 °F N/A% 30.04 in - ENE 6.9 mph - N/A   Clear
11:00 AM 75.2 °F 35.6 °F 24% 30.04 in - NE 6.9 mph - N/A   Clear
12:00 PM 79 °F 39 °F 15% 30.03 in 6 mi ENE 9.2 mph - -   Clear
12:00 PM 78.8 °F 39.2 °F 24% 30.01 in - ENE 9.2 mph - N/A   Clear
1:00 PM 84.2 °F 41.0 °F 22% 29.98 in - ENE 6.9 mph - N/A   Clear
2:00 PM 87.8 °F 39.2 °F 18% 29.92 in - East 6.9 mph - N/A   Unknown
3:00 PM 87.8 °F 42.8 °F 21% 29.89 in - NE 9.2 mph - N/A   Clear
4:00 PM 89.6 °F 44.6 °F 21% 29.86 in - ENE 9.2 mph - N/A   Clear
5:00 PM 89.6 °F 46.4 °F 22% 29.86 in - NNE 6.9 mph - N/A   Clear
6:00 PM 78.8 °F 59.0 °F 51% 29.89 in - NNW 6.9 mph - N/A   Clear
8:00 PM 68.0 °F 55.4 °F 64% 29.92 in - North 6.9 mph - N/A   Clear
9:00 PM 66.2 °F 57.2 °F 73% 29.95 in - North 6.9 mph - N/A   Clear
10:00 PM 62.6 °F 57.2 °F 82% 29.95 in - North 6.9 mph - N/A   Clear
11:00 PM 62.6 °F 55.4 °F 77% 29.98 in - NNE 4.6 mph - N/A   Clear